Tracking 29594 objects as of 20-Sep-2024
HD Live streaming from Space Station
objects crossing your sky now

FENGYUN 1C DEB

Track FENGYUN 1C DEB now!
10-day predictions


NORAD ID: 30347
Int'l Code: 1999-025ABJ
Perigee: 817.8 km
Apogee: 1,036.9 km
Inclination: 98.4 °
Period: 103.4 minutes
Semi major axis: 7298 km
RCS: 0.028 m2 (small)
Launch date: May 10, 1999
Source: People's Republic of China (PRC)
Launch site: Taiyaun Space Center, China (TSC)

Note: This is SATELLITE DEBRIS
Your satellite tracking list
Your tracking list is empty




NASA's NSSDC Master Catalog

Two Line Element Set (TLE):
1 30347U 99025ABJ 24263.59542375  .00000425  00000-0  32852-3 0  9993
2 30347  98.4136 123.2495 0150071 201.3838 185.6762 13.92403067897290
Source of the keplerian elements: AFSPC